Torna al catalogo

USA 371

AttivoMilitareVLEO
NORAD 59831·PAYLOAD·🇺🇸 United States

Lanciato May 22, 2024 da Vandenberg Space Force Base

Loading…

Prossimi Passaggi (prossime 24 ore)

TLE

ObsoletoSource: Mike McCants

Epoca: Aug 25, 2026, 20:13 UTC

1 59831U 24096T   26237.84295130 0.00000000  00000-0  00000-0 0    02
2 59831  70.0232 137.0379 0003004 127.9261 232.0738 14.96713072    02

Traccia USA 371 in tempo reale con AllMySat

Download on the App Store